JEF11 EFOU-EFHK

Flight info

Callsign JEF11
Flight time 0h 46m
Altitude 35000
Route MIKNU Y86 LUSEP
Aircraft CL65/M-VGDW/C

Departure

Time 2026-04-20 18:52
Airport Oulu Airport (EFOU)

Arrival

Time 2026-04-20 19:39
Airport Helsinki Vantaa Airport (EFHK)
Time Latitude Longitude Altitude Speed Heading
2026-04-20 18:27 64.92876 25.37036 40 ft 0 kts 60°
2026-04-20 18:43 64.92877 25.37036 40 ft 0 kts 60°
2026-04-20 18:44 64.92876 25.37036 40 ft 0 kts 60°
2026-04-20 18:44 64.92877 25.37036 40 ft 0 kts 60°
2026-04-20 18:47 64.92872 25.37057 40 ft 7 kts 168°
2026-04-20 18:48 64.92838 25.36956 40 ft 9 kts 251°
2026-04-20 18:48 64.92860 25.36782 40 ft 14 kts 300°
2026-04-20 18:48 64.92924 25.36535 40 ft 20 kts 303°
2026-04-20 18:48 64.93007 25.36211 40 ft 26 kts 300°
2026-04-20 18:49 64.93107 25.35820 40 ft 29 kts 301°
2026-04-20 18:49 64.93217 25.35391 40 ft 31 kts 300°
2026-04-20 18:49 64.93332 25.34937 40 ft 33 kts 301°
2026-04-20 18:49 64.93454 25.34456 41 ft 34 kts 301°
2026-04-20 18:50 64.93580 25.33962 42 ft 35 kts 298°
2026-04-20 18:50 64.93689 25.33535 44 ft 17 kts 300°
2026-04-20 18:50 64.93694 25.33271 47 ft 18 kts 214°
2026-04-20 18:50 64.93562 25.33273 49 ft 18 kts 148°
2026-04-20 18:51 64.93538 25.33367 49 ft 0 kts 121°
2026-04-20 18:51 64.93481 25.33596 47 ft 67 kts 121°
2026-04-20 18:52 64.93052 25.35303 87 ft 165 kts 117°
2026-04-20 18:52 64.92417 25.37841 851 ft 193 kts 119°
2026-04-20 18:52 64.91695 25.40678 1775 ft 225 kts 118°
2026-04-20 18:52 64.90832 25.44056 2807 ft 256 kts 119°
2026-04-20 18:53 64.89697 25.47287 3992 ft 267 kts 140°
2026-04-20 18:53 64.88026 25.49119 5139 ft 277 kts 171°
2026-04-20 18:53 64.86121 25.49201 6403 ft 281 kts 181°
2026-04-20 18:53 64.84174 25.49012 7586 ft 290 kts 183°
2026-04-20 18:54 64.82163 25.48721 8708 ft 295 kts 183°
2026-04-20 18:54 64.80061 25.48433 9931 ft 311 kts 183°
2026-04-20 18:54 64.77921 25.48144 11325 ft 321 kts 184°
2026-04-20 18:54 64.75664 25.47840 12335 ft 342 kts 183°
2026-04-20 18:55 64.73244 25.47520 13501 ft 354 kts 183°
2026-04-20 18:55 64.70773 25.47196 14677 ft 364 kts 183°
2026-04-20 18:55 64.68269 25.46870 15860 ft 371 kts 183°
2026-04-20 18:55 64.65700 25.46538 17058 ft 377 kts 184°
2026-04-20 18:56 64.63097 25.46203 18131 ft 383 kts 183°
2026-04-20 18:56 64.60401 25.45857 19155 ft 390 kts 184°
2026-04-20 18:56 64.57694 25.45510 20105 ft 397 kts 183°
2026-04-20 18:56 64.54966 25.45162 21026 ft 404 kts 184°
2026-04-20 18:57 64.52157 25.44805 21920 ft 410 kts 184°
2026-04-20 18:57 64.49301 25.44443 22718 ft 417 kts 184°
2026-04-20 18:57 64.46394 25.44075 23486 ft 424 kts 184°
2026-04-20 18:57 64.43443 25.43752 24267 ft 431 kts 182°
2026-04-20 18:58 64.40448 25.43576 25113 ft 435 kts 182°
2026-04-20 18:58 64.37415 25.43415 25901 ft 440 kts 182°
2026-04-20 18:58 64.34363 25.43250 26645 ft 444 kts 182°
2026-04-20 18:58 64.31307 25.43086 27351 ft 448 kts 182°
2026-04-20 18:59 64.28172 25.42917 28037 ft 452 kts 182°
2026-04-20 18:59 64.25038 25.42748 28645 ft 457 kts 182°
2026-04-20 18:59 64.21854 25.42576 29262 ft 461 kts 182°
2026-04-20 18:59 64.18659 25.42405 30040 ft 460 kts 182°
2026-04-20 19:00 64.15427 25.42232 30931 ft 456 kts 182°
2026-04-20 19:00 64.12279 25.42064 31767 ft 452 kts 181°
2026-04-20 19:00 64.09116 25.41895 32599 ft 447 kts 182°
2026-04-20 19:00 64.06052 25.41731 33314 ft 443 kts 182°
2026-04-20 19:01 64.02983 25.41567 33988 ft 441 kts 181°
2026-04-20 19:01 63.99908 25.41402 34648 ft 438 kts 181°
2026-04-20 19:01 63.96889 25.41241 35169 ft 438 kts 181°
2026-04-20 19:01 63.93799 25.41076 35307 ft 447 kts 181°
2026-04-20 19:02 63.90664 25.40909 35329 ft 458 kts 181°
2026-04-20 19:02 63.87440 25.40738 35325 ft 469 kts 181°
2026-04-20 19:02 63.80856 25.40395 35320 ft 482 kts 181°
2026-04-20 19:03 63.74115 25.40057 35318 ft 485 kts 181°
2026-04-20 19:03 63.67388 25.39705 35322 ft 484 kts 180°
2026-04-20 19:04 63.60647 25.39345 35324 ft 482 kts 181°
2026-04-20 19:04 63.53962 25.38995 35327 ft 483 kts 180°
2026-04-20 19:05 63.47228 25.38648 35326 ft 483 kts 180°
2026-04-20 19:05 63.40570 25.38305 35327 ft 483 kts 180°
2026-04-20 19:06 63.33802 25.37958 35318 ft 482 kts 180°
2026-04-20 19:06 63.27074 25.37612 35325 ft 483 kts 180°
2026-04-20 19:07 63.20383 25.37272 35321 ft 482 kts 180°
2026-04-20 19:07 63.13689 25.36930 35327 ft 481 kts 180°
2026-04-20 19:08 63.03646 25.36419 35318 ft 482 kts 180°
2026-04-20 19:09 62.96978 25.36082 35317 ft 481 kts 179°
2026-04-20 19:09 62.90277 25.35746 35318 ft 481 kts 179°
2026-04-20 19:10 62.83563 25.35411 35314 ft 481 kts 179°
2026-04-20 19:10 62.76891 25.35076 35315 ft 481 kts 179°
2026-04-20 19:11 62.70242 25.34743 35310 ft 481 kts 179°
2026-04-20 19:11 62.63582 25.34410 35311 ft 480 kts 179°
2026-04-20 19:12 62.56932 25.34080 35314 ft 480 kts 179°
2026-04-20 19:12 62.50234 25.33749 35310 ft 480 kts 179°
2026-04-20 19:13 62.43609 25.33428 35315 ft 480 kts 178°
2026-04-20 19:13 62.36954 25.33106 35320 ft 480 kts 179°
2026-04-20 19:14 62.30259 25.32783 35319 ft 480 kts 179°
2026-04-20 19:14 62.23598 25.32463 35316 ft 480 kts 178°
2026-04-20 19:15 62.16888 25.32143 35307 ft 479 kts 178°
2026-04-20 19:15 62.10212 25.31825 35308 ft 479 kts 178°
2026-04-20 19:16 62.03576 25.31507 35305 ft 479 kts 178°
2026-04-20 19:16 61.96923 25.31186 35306 ft 478 kts 178°
2026-04-20 19:17 61.90240 25.30871 35307 ft 478 kts 177°
2026-04-20 19:17 61.83627 25.30559 35313 ft 469 kts 177°
2026-04-20 19:17 61.80402 25.30355 35319 ft 455 kts 179°
2026-04-20 19:18 61.77309 25.29543 35260 ft 444 kts 187°
2026-04-20 19:18 61.74311 25.28091 34944 ft 438 kts 190°
2026-04-20 19:18 61.71357 25.26567 34366 ft 437 kts 189°
2026-04-20 19:18 61.68467 25.25087 33652 ft 440 kts 190°
2026-04-20 19:19 61.65442 25.23541 32868 ft 444 kts 190°
2026-04-20 19:19 61.62408 25.21994 31996 ft 448 kts 190°
2026-04-20 19:19 61.59367 25.20445 31151 ft 452 kts 189°
2026-04-20 19:19 61.56320 25.18896 30245 ft 456 kts 189°
2026-04-20 19:20 61.53266 25.17346 29335 ft 458 kts 189°
2026-04-20 19:20 61.50188 25.15786 28457 ft 459 kts 190°
2026-04-20 19:20 61.47107 25.14225 27839 ft 453 kts 190°
2026-04-20 19:20 61.44075 25.12692 27244 ft 447 kts 190°
2026-04-20 19:21 61.41086 25.11183 26662 ft 442 kts 189°
2026-04-20 19:21 61.38159 25.09709 26050 ft 439 kts 189°
2026-04-20 19:21 61.35192 25.08218 25478 ft 437 kts 190°
2026-04-20 19:21 61.32255 25.06746 24925 ft 437 kts 189°
2026-04-20 19:22 61.29330 25.05284 24308 ft 435 kts 190°
2026-04-20 19:22 61.26430 25.03834 23767 ft 431 kts 189°
2026-04-20 19:22 61.23528 25.02387 23183 ft 427 kts 189°
2026-04-20 19:22 61.20660 25.00959 22625 ft 423 kts 189°
2026-04-20 19:23 61.17809 24.99544 22060 ft 419 kts 189°
2026-04-20 19:23 61.15018 24.98161 21499 ft 415 kts 189°
2026-04-20 19:23 61.12237 24.96787 20964 ft 410 kts 189°
2026-04-20 19:23 61.09473 24.95426 20415 ft 407 kts 189°
2026-04-20 19:24 61.06750 24.94086 19884 ft 402 kts 189°
2026-04-20 19:24 61.04044 24.92757 19342 ft 398 kts 189°
2026-04-20 19:24 61.01377 24.91449 18813 ft 394 kts 189°
2026-04-20 19:24 60.98715 24.90146 18314 ft 391 kts 190°
2026-04-20 19:25 60.96101 24.88869 17798 ft 388 kts 190°
2026-04-20 19:25 60.93499 24.87599 17271 ft 383 kts 190°
2026-04-20 19:25 60.90927 24.86346 16776 ft 380 kts 190°
2026-04-20 19:25 60.88355 24.85095 16267 ft 377 kts 190°
2026-04-20 19:26 60.85828 24.83868 15769 ft 374 kts 190°
2026-04-20 19:26 60.83290 24.82637 15277 ft 370 kts 190°
2026-04-20 19:26 60.80808 24.81435 14602 ft 371 kts 190°
2026-04-20 19:26 60.78338 24.80240 14079 ft 363 kts 191°
2026-04-20 19:27 60.75916 24.79068 13586 ft 358 kts 191°
2026-04-20 19:27 60.73497 24.77900 13097 ft 356 kts 191°
2026-04-20 19:27 60.71113 24.76751 12616 ft 354 kts 191°
2026-04-20 19:27 60.68753 24.75615 12190 ft 345 kts 191°
2026-04-20 19:28 60.66428 24.74497 11679 ft 341 kts 191°
2026-04-20 19:28 60.64155 24.73404 11274 ft 330 kts 190°
2026-04-20 19:28 60.61971 24.72357 10831 ft 323 kts 190°
2026-04-20 19:28 60.59803 24.71320 10399 ft 320 kts 190°
2026-04-20 19:29 60.57653 24.70293 9994 ft 314 kts 190°
2026-04-20 19:29 60.55545 24.69286 9554 ft 310 kts 190°
2026-04-20 19:29 60.53469 24.68296 9162 ft 305 kts 191°
2026-04-20 19:29 60.51435 24.67328 8760 ft 300 kts 191°
2026-04-20 19:30 60.49437 24.66379 8352 ft 297 kts 191°
2026-04-20 19:30 60.47432 24.65428 7951 ft 294 kts 191°
2026-04-20 19:30 60.45457 24.64492 7576 ft 293 kts 191°
2026-04-20 19:30 60.43467 24.63551 7178 ft 292 kts 191°
2026-04-20 19:31 60.41522 24.62633 6798 ft 289 kts 191°
2026-04-20 19:31 60.39575 24.61713 6415 ft 285 kts 191°
2026-04-20 19:31 60.37648 24.60804 6045 ft 281 kts 191°
2026-04-20 19:31 60.35768 24.59918 5647 ft 275 kts 191°
2026-04-20 19:32 60.33940 24.59057 5319 ft 267 kts 191°
2026-04-20 19:32 60.32150 24.58216 4959 ft 264 kts 191°
2026-04-20 19:32 60.30368 24.57380 4611 ft 260 kts 191°
2026-04-20 19:32 60.28607 24.56572 4256 ft 257 kts 188°
2026-04-20 19:33 60.26872 24.56653 3897 ft 246 kts 161°
2026-04-20 19:33 60.25394 24.58149 3562 ft 235 kts 136°
2026-04-20 19:33 60.24204 24.60298 3234 ft 233 kts 132°
2026-04-20 19:33 60.23022 24.62491 2894 ft 231 kts 133°
2026-04-20 19:34 60.22083 24.64957 2694 ft 208 kts 108°
2026-04-20 19:34 60.21890 24.67574 2704 ft 175 kts 81°
2026-04-20 19:34 60.22185 24.69801 2578 ft 161 kts 62°
2026-04-20 19:34 60.22790 24.71670 2453 ft 158 kts 50°
2026-04-20 19:35 60.23490 24.73322 2323 ft 153 kts 47°
2026-04-20 19:35 60.24221 24.74885 2256 ft 148 kts 45°
2026-04-20 19:35 60.24867 24.76285 2089 ft 132 kts 46°
2026-04-20 19:35 60.25494 24.77653 1934 ft 133 kts 46°
2026-04-20 19:36 60.26109 24.78999 1724 ft 124 kts 46°
2026-04-20 19:36 60.26709 24.80279 1549 ft 130 kts 45°
2026-04-20 19:36 60.27311 24.81598 1369 ft 126 kts 46°
2026-04-20 19:36 60.27881 24.82851 1179 ft 119 kts 46°
2026-04-20 19:37 60.28435 24.84074 1014 ft 118 kts 45°
2026-04-20 19:37 60.28982 24.85283 872 ft 117 kts 45°
2026-04-20 19:37 60.29528 24.86485 709 ft 116 kts 45°
2026-04-20 19:37 60.30069 24.87670 571 ft 117 kts 45°
2026-04-20 19:38 60.30621 24.88892 430 ft 118 kts 45°
2026-04-20 19:38 60.31173 24.90115 247 ft 118 kts 45°
2026-04-20 19:38 60.31701 24.91281 163 ft 102 kts 45°
2026-04-20 19:38 60.32109 24.92178 179 ft 71 kts 45°
2026-04-20 19:39 60.32361 24.92736 186 ft 41 kts 54°
2026-04-20 19:39 60.32460 24.93242 191 ft 38 kts 78°
2026-04-20 19:39 60.32502 24.93638 192 ft 20 kts 77°
2026-04-20 19:39 60.32526 24.93801 192 ft 0 kts 72°
2026-04-20 19:40 60.32526 24.93818 192 ft 0 kts 88°
2026-04-20 19:41 60.32527 24.93846 192 ft 7 kts 85°
2026-04-20 19:41 60.32571 24.93991 193 ft 15 kts 48°
2026-04-20 19:41 60.32654 24.94173 192 ft 20 kts 47°
2026-04-20 19:41 60.32758 24.94400 194 ft 23 kts 48°
2026-04-20 19:42 60.32872 24.94653 196 ft 26 kts 47°
2026-04-20 19:42 60.32996 24.94925 202 ft 26 kts 47°
2026-04-20 19:42 60.33129 24.95216 204 ft 29 kts 47°
2026-04-20 19:42 60.33206 24.95482 203 ft 20 kts 105°
2026-04-20 19:43 60.33092 24.95717 197 ft 27 kts 141°
2026-04-20 19:43 60.32927 24.95937 195 ft 25 kts 147°
2026-04-20 19:43 60.32872 24.96216 190 ft 25 kts 142°
2026-04-20 19:43 60.32705 24.96411 187 ft 30 kts 150°
2026-04-20 19:44 60.32600 24.96532 183 ft 3 kts 151°
2026-04-20 19:44 60.32598 24.96535 183 ft 0 kts 152°
2026-04-20 19:46 60.32590 24.96543 183 ft 5 kts 153°
2026-04-20 19:46 60.32511 24.96633 179 ft 19 kts 153°
2026-04-20 19:47 60.32366 24.96780 176 ft 26 kts 153°
2026-04-20 19:47 60.32190 24.96963 175 ft 30 kts 152°
2026-04-20 19:47 60.31995 24.97165 182 ft 32 kts 154°
2026-04-20 19:47 60.31793 24.97374 189 ft 33 kts 152°
2026-04-20 19:48 60.31573 24.97602 186 ft 37 kts 153°
2026-04-20 19:48 60.31334 24.97848 182 ft 40 kts 155°
2026-04-20 19:48 60.31076 24.98114 179 ft 43 kts 154°
2026-04-20 19:48 60.30951 24.98203 179 ft 11 kts 205°
2026-04-20 19:49 60.30900 24.98091 182 ft 12 kts 169°
2026-04-20 19:49 60.30849 24.98094 182 ft 0 kts 240°